Hourly Data Report for October 15, 2013

All times are specified in Local Standard Time (LST). Add 1 hour to adjust for Daylight Saving Time where and when it is observed.

KUGAARUK CLIMATE
NUNAVUT

68°32'15.060" N
89°47'47.020" W
15.80 m
2303094
71407
NBB

Download Data

Hourly Data (October 2013)
Hourly Data Report for October 15, 2013
Temp Definition
°C
Dew Point Temp Definition
°C
Rel Hum Definition
%
Wind Dir Definition
10's deg

Wind Spd Definition
km/h
Visibility Definition
km
Stn Press Definition
kPa
Hmdx Definition


Wind Chill Definition


Weather Definition


TIME
00:00 -1.9 -3.3 90 33 15   100.24   -7 LegendNANA
01:00 -1.8 -3.2 90 33 15   100.19   -7 LegendNANA
02:00 -1.7 -3.1 90 33 19   100.15   -7 LegendNANA
03:00 -1.7 -3.0 91 33 19   100.12   -7 LegendNANA
04:00 -1.7 -3.1 90 33 22   100.08   -8 LegendNANA
05:00 -1.7 -3.1 90 32 15   100.05   -7 LegendNANA
06:00 -2.0 -3.2 91 33 20   99.99   -8 LegendNANA
07:00 -1.8 -3.1 91 34 22   99.92   -8 LegendNANA
08:00 -1.5 -2.8 91 35 24   99.87   -8 LegendNANA
09:00 -1.2 -2.4 92 2 13   99.86   -5 LegendNANA
10:00 -1.0 -2.1 92 36 13   99.86   -5 LegendNANA
11:00 -0.7 -1.6 94 1 9   99.83   -4 LegendNANA
12:00 -0.8 -1.8 93 4 7   99.82   -3 LegendNANA
13:00 -0.9 -1.7 94 10 6   99.80   -3 LegendNANA
14:00 -2.3 -3.4 92 7 15   99.79   -7 LegendNANA
15:00 -3.9 -4.7 94 6 15   99.83   -9 LegendNANA
16:00 -3.4 -3.8 97 6 11   99.84   -8 LegendNANA
17:00 -2.1 -2.4 98 8 11   99.83   -6 LegendNANA
18:00 -2.4 -3.0 96 8 11   99.83   -6 LegendNANA
19:00 -2.7 -3.4 95 10 11   99.79   -7 LegendNANA
20:00 -2.9 -3.5 96 6 9   99.80   -6 LegendNANA
21:00 -3.0 -3.9 93 7 11   99.79   -7 LegendNANA
22:00 -3.5 -4.3 94 7 6   99.80   -6 LegendNANA
23:00 -3.6 -4.5 93 6 11   99.80   -8 LegendNANA

Notes on Data Quality.

Legend

  • E = Estimated
  • M = Missing
  • NA = Not Available
  • ‡ = Partner data that is not subject to review by the National Climate Archives
Date modified: